This is the latest recevied weather packets stored in our database for station/object SQ8AQX-13. If no packets are shown the sender has not sent any weather packets the latest 10 day(s).
| Time | Temp. | Humidity | Pressure | Rain* | Wind** | Luminosity | Snow |
|---|---|---|---|---|---|---|---|
| 1777585968 | 8.33° C | 43% | 1029.6 hPa | - | - | - | - |
| 1777585368 | 8.33° C | 41% | 1029.6 hPa | - | - | - | - |
| 1777583567 | 8.33° C | 38% | 1029.8 hPa | - | - | - | - |
| 1777582967 | 8.89° C | 38% | 1029.8 hPa | - | - | - | - |
| 1777582367 | 8.89° C | 38% | 1029.8 hPa | - | - | - | - |
| 1777580566 | 9.44° C | 38% | 1029.8 hPa | - | - | - | - |
| 1777579966 | 9.44° C | 37% | 1029.9 hPa | - | - | - | - |
| 1777579366 | 9.44° C | 36% | 1029.8 hPa | - | - | - | - |
| 1777577566 | 10° C | 34% | 1029.7 hPa | - | - | - | - |
| 1777576966 | 10° C | 33% | 1029.7 hPa | - | - | - | - |
| 1777576366 | 10.56° C | 34% | 1029.6 hPa | - | - | - | - |
| 1777574566 | 11.11° C | 32% | 1029.4 hPa | - | - | - | - |
| 1777573966 | 11.11° C | 29% | 1029.4 hPa | - | - | - | - |
| 1777573366 | 11.11° C | 28% | 1029.4 hPa | - | - | - | - |
| 1777571565 | 11.67° C | 26% | 1029 hPa | - | - | - | - |
| 1777570965 | 11.67° C | 25% | 1029 hPa | - | - | - | - |
| 1777570365 | 11.67° C | 24% | 1029 hPa | - | - | - | - |
| 1777568565 | 12.78° C | 21% | 1028.9 hPa | - | - | - | - |
| 1777567965 | 13.33° C | 20% | 1028.8 hPa | - | - | - | - |
| 1777567365 | 13.89° C | 22% | 1028.7 hPa | - | - | - | - |
| 1777565565 | 17.22° C | 19% | 1028.6 hPa | - | - | - | - |
| 1777563764 | 18.33° C | 19% | 1028.6 hPa | - | - | - | - |
| 1777563164 | 17.78° C | 21% | 1028.6 hPa | - | - | - | - |
| 1777562564 | 16.67° C | 22% | 1028.7 hPa | - | - | - | - |
| 1777560763 | 16.11° C | 24% | 1029 hPa | - | - | - | - |
* Rain since midnight (hover to see other rain measurements)
** Current wind speed in m/s (hover to see current wind gust speed)